This demonstration page uses our WeatherBlox Daily Observations layout. Learn more.

Left ArrowRight Arrow

Hourly Observations for February 13, 2016

Temp ( °F °C ) Dew Point ( °F °C ) Humidity (%) Winds ( mph kmh ) Pressure ( in mb ) Visibility ( mi km ) Precip ( " mm )
12:19 am 00:19 Mostly Cloudy 22 -5.6 20 -6.7 92 92 NE 3 6 30.15 1021 10 16 0.00 0.00
12:53 am 00:53 Cloudy 22 -5.6 21 -6.1 96 96 Calm 30.05 1018 10 16 0.00 0.00
1:24 am 01:24 Cloudy 23 -5 21 -6 93 93 Calm 30.09 1019 9 14 0.00 0.00
1:53 am 01:53 Cloudy with Mist and Fog 22 -5.6 21 -6.1 96 96 NE 3 6 30.02 1017 4 6 0.00 0.00
1:56 am 01:56 Cloudy with Mist and Fog 23 -5 21 -6 93 93 NNE 3 6 30.09 1019 2 3 0.00 0.00
2:03 am 02:03 Cloudy with Mist and Fog 21 -6 21 -6 100 100 E 3 6 30.09 1019 1 2 0.00 0.00
2:15 am 02:15 Mostly Cloudy with Mist and Fog 22 -5.6 22 -5.6 100 100 Calm 30.12 1020 1 1 0.00 0.00
2:53 am 02:53 Mostly Cloudy with Freezing Fog 23 -5 22 -5.6 96 96 Calm 30.00 1016 1 1 0.00 0.00
3:26 am 03:26 Mostly Cloudy with Freezing Fog 21 -6 21 -6 100 100 Calm 30.09 1019 0 0 0.00 0.00
3:53 am 03:53 Mostly Cloudy with Freezing Fog 22 -5.6 22 -5.6 100 100 SSW 3 6 29.97 1015 0 0 0.00 0.00
4:53 am 04:53 Mostly Cloudy with Freezing Fog 23 -5 22 -5.6 96 96 Calm 29.95 1014 0 0 0.00 0.03
5:46 am 05:46 Mostly Cloudy with Freezing Fog 23 -5 23 -5 100 100 Calm 30.00 1016 1 1 0.00 0.00
5:53 am 05:53 Mostly Cloudy with Freezing Fog 23 -5 22 -5.6 96 96 WSW 5 7 29.95 1014 0 0 0.00 0.00
6:00 am 06:00 Mostly Cloudy with Freezing Fog 23 -5 23 -5 100 100 Calm 30.00 1016 1 1 0.00 0.00
6:29 am 06:29 Cloudy with Mist and Fog 24 -4.4 22 -5.6 91 91 SW 7 11 30.00 1016 2 2 0.00 0.00
6:33 am 06:33 Cloudy with Mist and Fog 24 -4.4 22 -5.6 91 91 SW 7 11 30.00 1016 3 5 0.00 0.00
6:43 am 06:43 Cloudy with Mist and Fog 24 -4.4 23 -5 96 96 SW 6 9 30.00 1016 2 3 0.00 0.00
6:53 am 06:53 Cloudy with Mist and Fog 24 -4.4 23 -5 96 96 SW 8 13 29.94 1014 6 10 0.00 0.00
7:46 am 07:46 Cloudy 25 -4 25 -4 100 100 SW 6 9 30.00 1016 7 11 0.00 0.00
7:53 am 07:53 Cloudy 26 -3.3 25 -3.9 96 96 WSW 10 17 29.95 1014 7 11 0.00 0.00
8:53 am 08:53 Cloudy 32 0 30 -1.1 92 92 WSW 17 28 29.91 1013 10 16 0.00 0.00
9:42 am 09:42 Partly Cloudy 36 2 30 -1 81 81 WSW 15 24 29.88 1012 10 16 0.00 0.00
9:53 am 09:53 Mostly Cloudy 34 1.1 31 -0.6 89 89 NNW 7 11 29.91 1013 10 16 0.00 0.00
10:53 am 10:53 Sunny 40 4.4 31 -0.6 70 70 SW 21 33 29.91 1013 10 16 0.00 0.00
11:53 am 11:53 Mostly Cloudy 46 7.8 30 -1.1 54 54 W 26 43 29.88 1012 10 16 0.00 0.00
12:53 pm 12:53 Cloudy 46 7.8 32 0 58 58 W 17 28 29.91 1013 10 16 0.00 0.03
1:53 pm 13:53 Cloudy 43 6.1 30 -1.1 60 60 NW 21 33 29.94 1014 10 16 0.00 0.00
2:53 pm 14:53 Sunny 44 6.7 30 -1.1 58 58 WNW 18 30 29.96 1015 10 16 0.00 0.00
3:53 pm 15:53 Mostly Cloudy 47 8.3 30 -1.1 52 52 WNW 14 22 29.98 1015 10 16 0.00 0.00
4:53 pm 16:53 Partly Cloudy 45 7.2 29 -1.7 54 54 WNW 9 15 29.99 1016 10 16 0.00 0.00
5:53 pm 17:53 Clear 38 3.3 27 -2.8 65 65 Calm 30.00 1016 10 16 0.00 0.00
6:53 pm 18:53 Cloudy 34 1.1 28 -2.2 79 79 SW 8 13 30.02 1017 10 16 0.00 0.00
7:53 pm 19:53 Cloudy 37 2.8 30 -1.1 76 76 SW 9 15 30.01 1016 10 16 0.00 0.00
8:53 pm 20:53 Cloudy 37 2.8 26 -3.3 65 65 SW 13 20 29.99 1016 10 16 0.00 0.00
9:53 pm 21:53 Partly Cloudy 32 0 25 -3.9 75 75 WNW 5 7 29.98 1015 10 16 0.00 0.00
10:53 pm 22:53 Clear 31 -0.6 24 -4.4 76 76 VRB 5 7 29.96 1015 10 16 0.00 0.00
11:53 pm 23:53 Clear 30 -1.1 23 -5 75 75 WNW 6 9 29.93 1014 10 16 0.00 0.00

Powered by AerisWeather